Weather Roundup
Issued by NWS Chicago, IL

Home | Current Version | Previous Version | Graphics & Text | Print | Product List | Glossary On
Versions: 1 2 3 4 5 6 7 8 9 10 11 12 13 14 15 16 17 18 19 20 21 22 23 24 25 26 27 28 29 30 31 32 33 34 35 36 37 38 39 40 41 42 43 44 45 46 47 48 49 50
000
NZUS59 KLOT 281903
HRRLOT

CHICAGO AREA WEATHER ROUNDUP
NATIONAL WEATHER SERVICE CHICAGO/ROMEOVILLE IL
200 PM CDT TUE MAR 28 2017

NOTE: "FAIR" INDICATES FEW OR NO CLOUDS BELOW 12,000 FEET WITH NO
SIGNIFICANT WEATHER AND/OR OBSTRUCTIONS TO VISIBILITY.

* THESE STATIONS ARE NOT UNDER NWS QUALITY CONTROL. THEY ALSO MAY NOT
  REPORT WEATHER SUCH AS PRECIPITATION OR FOG.

ILZ005-006-012>014-019>023-282000-
NORTHEAST ILLINOIS

CITY           SKY/WX    TMP DP  RH WIND       PRES   REMARKS
OHARE          CLOUDY    48  37  65 N13       30.13R
MIDWAY         CLOUDY    46  37  71 NE13G21   30.13S
AURORA         CLOUDY    48  39  71 NE8       30.14R
LANSING*       CLOUDY    43  40  87 N9        30.13S
JOLIET*        CLOUDY    48  40  75 NE9       30.14R
WAUKEGAN       PTSUNNY   43  38  82 NE12      30.14S
DUPAGE AIRPORT CLOUDY    47  41  80 NE9       30.13R
WHEELING       CLOUDY    46  39  76 NE10      30.14F
MORRIS*        CLOUDY    47  39  73 CALM      30.13R
NORTHERLY ISL    N/A     41  37  86 MISG        N/A
$$

WIZ051-052-058>065-066-070>072-282000-
SOUTHEAST WISCONSIN

CITY           SKY/WX    TMP DP  RH WIND       PRES   REMARKS
MILWAUKEE      PTSUNNY   42  36  79 NE12      30.16R
KENOSHA*       MOSUNNY   47  37  68 NE16      30.14S
RACINE*        CLOUDY    42  35  76 N14       30.17R
WAUKESHA       SUNNY     52  36  54 NE17      30.14S
WEST BEND      SUNNY     52  36  54 NE14      30.13F
$$

INZ001>003-010>013-019-020-282000-
NORTHWEST INDIANA

CITY           SKY/WX    TMP DP  RH WIND       PRES   REMARKS
GARY*          CLOUDY    43  37  81 N12G23    30.14S
MICHIGAN CITY* NOT AVBL
RENSSELAER*    NOT AVBL
VALPARAISO     CLOUDY    44  39  82 N10       30.11F
$$

LMZ740>746-282000-
SOUTHERN LAKE MICHIGAN

STATION/POSITION TIME  SKY/WX   TEMP WIND        PRES    VSBY
                                AIR  DIR/SP/G
                 (UTC)          (F)  (DEG/KT/KT) (MB)    (MI)
HARRISON CRIB    NOT AVBL
BURNHAM HARBOR   1800            41  350/  8/ 14   N/A
CALUMET HARBOR   1830            40  340/ 12/ 17 1019.8F
BURNS HARBOR     1840            39  360/ 12/ 13 1020.3F
MICHIGAN CITY    NOT AVBL
$$

ABBREVIATIONS USED IN REMARKS
   TC - TEMPERATURE IN CELSIUS
  WCI - WIND CHILL INDEX
   HX - HEAT INDEX
  VSB - VISIBILITY
$$




USA.gov is the U.S. government's official web portal to all federal, state and local government web resources and services.